{"data":{"norad_id":66262,"intl_designator":"2025-245AE","name":"STARLINK-35487","alt_names":[],"object_type":"PAYLOAD","status":"ACTIVE","operator":null,"country":"US","launch_date":"2025-10-29","launch_site_code":"AFETR","launch_vehicle":null,"mission":null,"orbit_class":"UNKNOWN","rcs_meters":null,"size_class":null,"mass_kg":null,"dimensions":null,"purposes":["comms"],"wikipedia_slug":null,"has_3d_model":false,"image_url":null,"decayed_at":null,"tle_current":{"epoch":"2026-09-20T21:48:30.272544Z","epoch_age_seconds":61356,"freshness":"FRESH","line1":"1 66262U 25245AE  26263.90868371  .00013047  00000+0  43123-3 0  9991","line2":"2 66262  53.1588  95.8183 0004247  63.3829 296.7607 15.31714401 51118","mean_motion":15.31714401,"eccentricity":0.0004247,"inclination_deg":53.1588,"raan_deg":95.8183,"arg_perigee_deg":63.3829,"mean_anomaly_deg":296.7607,"bstar":0.00043123,"rev_number":5111,"period_min":94.01230406007,"perigee_km":467.78836710213,"apogee_km":473.60576675858,"semimajor_km":6848.8340669304,"source":"CELESTRAK","updated_at":"2026-09-21T09:00:35.851996Z"}}}